Weather History for Burlington, IA

Change the Weather History Date:

Wednesday, July 31, 2013

  Actual Average Record
Temperature  
Mean Temperature 73 °F 76 °F  
Max Temperature 79 °F 86 °F 103 °F (1988)
Min Temperature 66 °F 66 °F 48 °F (1971)
Degree Days  
Heating Degree Days 0 0  
Month to date heating degree days 8 0  
Since 1 June heating degree days 23 14  
Since 1 July heating degree days 8 1  
Cooling Degree Days 8 11  
Month to date cooling degree days 297 366  
Year to date cooling degree days 604 729  
Since 1 June cooling degree days 505 626  
Growing Degree Days 22 (Base 50)    
Moisture  
Dew Point 66 °F    
Average Humidity 81    
Maximum Humidity 100    
Minimum Humidity 62    
Precipitation  
Precipitation 0.00 in 0.13 in 0.70 in (1993)
Month to date precipitation 1.59 4.25  
Year to date precipitation 27.06 22.98  
Sea Level Pressure  
Sea Level Pressure 30.05 in    
Wind  
Wind Speed 4 mph (NNW)    
Max Wind Speed 10 mph    
Max Gust Speed 15 mph    
Visibility 7 miles    
Events      
T = Trace of Precipitation, MM = Missing Value Source: NWS Daily Summary

Daily Weather History Graph

Daily Weather History Graph

Search for Another Location

Airport:

Trip Planner

Search our weather history database for the weather conditions in past years. The results will help you decide how hot, cold, wet, or windy it might be!

Date:

Astronomy

Jul. 31, 2013 Rise Set
Actual Time 6:00 AM CDT 8:20 PM CDT
Civil Twilight 5:29 AM CDT 8:51 PM CDT
Nautical Twilight 4:51 AM CDT 9:29 PM CDT
Astronomical Twilight 4:09 AM CDT 10:11 PM CDT
Moon 12:55 AM CDT (7/31) 3:37 PM CDT (7/31)
Length of Visible Light 15h 22m
Length of Day
14h 20m
Waning Crescent, 31% of the Moon is Illuminated
Jul 31
Waning Crescent
Aug 6
New
Aug 14
First Quarter
Aug 20
Full
Aug 28
Last Quarter

Hourly Weather History & Observations

Time (CDT) Temp. Dew Point Humidity Pressure Visibility Wind Dir Wind Speed Gust Speed Precip Events Conditions
12:51 AM 68.0 °F 66.2 °F 94% 30.04 in 3.0 mi North 4.6 mph - N/A   Overcast
12:53 AM 68.0 °F 66.9 °F 96% 30.04 in 3.0 mi North 4.6 mph - N/A   Overcast
2:01 AM 66.2 °F 66.2 °F 100% 30.04 in 4.0 mi North 6.9 mph - N/A   Overcast
2:21 AM 66.2 °F 66.2 °F 100% 30.04 in 2.0 mi NNW 3.5 mph - N/A   Overcast
2:53 AM 66.9 °F 66.0 °F 97% 30.04 in 2.5 mi NW 4.6 mph - N/A   Overcast
3:08 AM 66.2 °F 66.2 °F 100% 30.04 in 3.0 mi Calm Calm - N/A   Overcast
3:50 AM 66.2 °F 66.2 °F 100% 30.04 in 3.0 mi Calm Calm - N/A   Overcast
3:53 AM 66.9 °F 66.0 °F 97% 30.03 in 3.0 mi Calm Calm - N/A   Overcast
4:53 AM 66.9 °F 66.0 °F 97% 30.04 in 3.0 mi NNW 6.9 mph - N/A   Overcast
5:01 AM 66.2 °F 66.2 °F 100% 30.05 in 3.0 mi NNW 5.8 mph - N/A   Overcast
5:41 AM 66.2 °F 66.2 °F 100% 30.05 in 4.0 mi NNW 3.5 mph - N/A   Overcast
5:53 AM 66.9 °F 66.0 °F 97% 30.05 in 4.0 mi NW 3.5 mph - N/A   Overcast
6:15 AM 66.2 °F 66.2 °F 100% 30.06 in 3.0 mi NNW 4.6 mph - N/A   Overcast
6:24 AM 66.2 °F 66.2 °F 100% 30.06 in 2.5 mi North 4.6 mph - N/A   Overcast
6:48 AM 66.2 °F 66.2 °F 100% 30.06 in 3.0 mi NNW 3.5 mph - N/A   Overcast
6:53 AM 66.9 °F 66.0 °F 97% 30.05 in 3.0 mi NNW 5.8 mph - N/A   Overcast
7:40 AM 68.0 °F 66.2 °F 94% 30.06 in 5.0 mi North 4.6 mph - N/A   Overcast
7:53 AM 68.0 °F 66.0 °F 93% 30.06 in 6.0 mi North 6.9 mph - N/A   Overcast
8:42 AM 68.0 °F 66.2 °F 94% 30.07 in 8.0 mi NNW 5.8 mph - N/A   Overcast
8:53 AM 69.1 °F 66.0 °F 90% 30.07 in 9.0 mi North 5.8 mph - N/A   Overcast
9:11 AM 69.8 °F 66.2 °F 88% 30.07 in 8.0 mi NNW 6.9 mph - N/A   Overcast
9:39 AM 69.8 °F 66.2 °F 88% 30.08 in 10.0 mi North 9.2 mph - N/A   Overcast
9:53 AM 69.1 °F 66.0 °F 90% 30.07 in 10.0 mi NNW 4.6 mph - N/A   Overcast
10:53 AM 70.0 °F 64.9 °F 84% 30.07 in 10.0 mi NNW 6.9 mph - N/A   Overcast
11:53 AM 72.0 °F 66.0 °F 81% 30.07 in 10.0 mi North 6.9 mph - N/A   Overcast
12:08 PM 71.6 °F 64.4 °F 78% 30.07 in 10.0 mi NNW 6.9 mph - N/A   Overcast
12:53 PM 73.9 °F 66.0 °F 76% 30.06 in 10.0 mi Variable 6.9 mph - N/A   Overcast
1:11 PM 73.4 °F 64.4 °F 73% 30.07 in 10.0 mi NNW 6.9 mph - N/A   Overcast
1:19 PM 73.4 °F 66.2 °F 78% 30.07 in 10.0 mi NW 5.8 mph - N/A   Overcast
1:53 PM 73.9 °F 66.0 °F 76% 30.05 in 10.0 mi NW 5.8 mph - N/A   Overcast
2:53 PM 75.9 °F 64.9 °F 69% 30.05 in 10.0 mi NNW 9.2 mph - N/A   Overcast
3:53 PM 78.1 °F 66.0 °F 66% 30.04 in 10.0 mi North 5.8 mph - N/A   Mostly Cloudy
4:53 PM 78.1 °F 66.0 °F 66% 30.03 in 10.0 mi Variable 4.6 mph - N/A   Mostly Cloudy
5:53 PM 78.1 °F 64.9 °F 64% 30.01 in 10.0 mi Calm Calm - N/A   Partly Cloudy
6:53 PM 78.1 °F 66.9 °F 68% 29.99 in 10.0 mi Calm Calm - N/A   Clear
7:53 PM 73.9 °F 68.0 °F 82% 30.00 in 10.0 mi West 3.5 mph - N/A   Clear
8:53 PM 70.0 °F 66.9 °F 90% 30.00 in 10.0 mi Calm Calm - N/A   Clear
9:53 PM 70.0 °F 66.9 °F 90% 30.02 in 10.0 mi Calm Calm - N/A   Partly Cloudy
10:53 PM 69.1 °F 66.0 °F 90% 30.02 in 10.0 mi NW 3.5 mph - N/A   Scattered Clouds
11:53 PM 68.0 °F 64.9 °F 90% 30.03 in 10.0 mi Calm Calm - N/A   Clear